Change the Weather History Date:

Thursday, February 13, 2014

  Actual Average Record
Temperature  
Mean Temperature 78 °F -  
Max Temperature 84 °F 82 °F 84 °F (1997)
Min Temperature 73 °F 74 °F 73 °F (2001)
Cooling Degree Days 14    
Growing Degree Days 28 (Base 50)    
Moisture  
Dew Point 71 °F    
Average Humidity 76    
Maximum Humidity 87    
Minimum Humidity 63    
Precipitation  
Precipitation 0.00 in - - ()
Sea Level Pressure  
Sea Level Pressure 29.96 in    
Wind  
Wind Speed 5 mph (ENE)    
Max Wind Speed 9 mph    
Max Gust Speed -    
Visibility 10 miles    
Events      
Averages and records for this station are not official NWS values.
T = Trace of Precipitation, MM = Missing Value Source: NWS Daily Summary

Daily Weather History Graph

Daily Weather History Graph

Search for Another Location

Airport or City:

Trip Planner

Search our weather history database for the weather conditions in past years. The results will help you decide how hot, cold, wet, or windy it might be!

Date:

Astronomy

Feb. 13, 2014 Rise Set
Actual Time 6:42 AM ChST 6:20 PM ChST
Civil Twilight 6:20 AM ChST 6:42 PM ChST
Nautical Twilight 5:55 AM ChST 7:07 PM ChST
Astronomical Twilight 5:30 AM ChST 7:32 PM ChST
Moon 4:56 PM ChST (2/13) 5:06 AM ChST (2/13)
Length of Visible Light 12h 21m
Length of Day
11h 37m
Waxing Gibbous, 97% of the Moon is Illuminated
Feb 13
Waxing Gibbous
Feb 15
Full
Feb 23
Last Quarter
Mar 1
New
Mar 8
First Quarter

Hourly Weather History & Observations

Time (ChST) Temp. Heat Index Dew Point Humidity Pressure Visibility Wind Dir Wind Speed Gust Speed Precip Events Conditions
12:54 AM 75.9 °F - 69.1 °F 79% 29.94 in 10.0 mi East 4.6 mph - N/A   Clear
1:54 AM 77.0 °F - 70.0 °F 79% 29.93 in 10.0 mi East 3.5 mph - N/A   Clear
2:54 AM 77.0 °F - 70.0 °F 79% 29.93 in 10.0 mi East 3.5 mph - N/A   Partly Cloudy
3:54 AM 75.0 °F - 70.0 °F 84% 29.93 in 10.0 mi East 3.5 mph - N/A   Partly Cloudy
4:54 AM 77.0 °F - 70.0 °F 79% 29.93 in 10.0 mi East 3.5 mph - N/A   Scattered Clouds
5:54 AM 73.9 °F - 70.0 °F 87% 29.95 in 10.0 mi ENE 3.5 mph - N/A   Clear
6:54 AM 75.9 °F - 72.0 °F 87% 29.97 in 10.0 mi NE 3.5 mph - 0.00 in   Overcast
7:54 AM 80.1 °F 83.8 °F 72.0 °F 76% 29.99 in 10.0 mi East 4.6 mph - N/A   Scattered Clouds
8:54 AM 80.1 °F 83.8 °F 72.0 °F 76% 30.01 in 10.0 mi ESE 3.5 mph - N/A   Scattered Clouds
9:54 AM 82.9 °F 87.5 °F 71.1 °F 67% 30.02 in 10.0 mi SE 8.1 mph - N/A   Clear
10:54 AM 84.0 °F 89.0 °F 71.1 °F 65% 30.01 in 10.0 mi ESE 9.2 mph - N/A   Scattered Clouds
11:54 AM 82.9 °F 87.5 °F 71.1 °F 67% 29.98 in 10.0 mi Variable 6.9 mph - N/A   Scattered Clouds
12:54 PM 84.0 °F 88.4 °F 70.0 °F 63% 29.96 in 10.0 mi ESE 9.2 mph - N/A   Partly Cloudy
1:54 PM 82.0 °F 85.9 °F 70.0 °F 67% 29.93 in 10.0 mi East 8.1 mph - N/A   Scattered Clouds
2:54 PM 82.0 °F 85.9 °F 70.0 °F 67% 29.91 in 10.0 mi East 6.9 mph - N/A   Mostly Cloudy
3:54 PM 82.0 °F 85.9 °F 70.0 °F 67% 29.91 in 10.0 mi ENE 8.1 mph - N/A   Scattered Clouds
4:54 PM 82.0 °F 86.3 °F 71.1 °F 69% 29.93 in 10.0 mi NE 8.1 mph - N/A   Partly Cloudy
5:54 PM 79.0 °F - 70.0 °F 74% 29.94 in 10.0 mi NE 5.8 mph - N/A   Partly Cloudy
6:54 PM 78.1 °F - 71.1 °F 79% 29.96 in 10.0 mi NNE 3.5 mph - N/A   Clear
7:54 PM 75.9 °F - 71.1 °F 85% 29.97 in 9.0 mi North 3.5 mph - N/A   Clear
8:54 PM 77.0 °F - 70.0 °F 79% 29.99 in 10.0 mi NNE 4.6 mph - N/A   Clear
9:54 PM 75.9 °F - 70.0 °F 82% 29.98 in 10.0 mi North 3.5 mph - N/A   Clear
10:54 PM 75.9 °F - 71.1 °F 85% 29.98 in 10.0 mi NNE 6.9 mph - N/A   Clear
11:54 PM 75.9 °F - 70.0 °F 82% 29.98 in 10.0 mi North 4.6 mph - N/A   Partly Cloudy